When you browse on this site, cookies collect data to enhance your experience and personalize the content and advertising you see.
Visit our Privacy Policy to learn more. By continuing to use the site, you agree to this use of cookies and data.
  • Em Portugal
  • Lista de países
  • Para 7 dias
  • Temperatura da água
  • Mapas de satélite
  • Mapa do tempo
  • Widgets de tempo
  • user-avatar
    Iniciar Sessão

    Previsão horária em Gornyy

    Hoje, 19 Julho, Sexta-feira

    Tempo Temperatura Precipitação Vento Pressão Humidade
    00:00 +19°C° 0 mm 3 m/s 747 mmHg 95%
    01:00 +19°C° 0 mm 3 m/s 747 mmHg 95%
    02:00 +18°C° 0 mm 3 m/s 747 mmHg 96%
    03:00 +18°C° 0 mm 3 m/s 748 mmHg 97%
    04:00 +19°C° 0 mm 3 m/s 748 mmHg 94%
    05:00 +19°C° 0 mm 3 m/s 748 mmHg 92%
    06:00 +20°C° 0 mm 3 m/s 748 mmHg 90%
    07:00 +21°C° 0 mm 4 m/s 749 mmHg 86%
    08:00 +22°C° 0 mm 4 m/s 749 mmHg 82%
    09:00 +25°C° 0 mm 4 m/s 749 mmHg 76%
    10:00 +25°C° 0 mm 4 m/s 749 mmHg 73%
    11:00 +26°C° 0 mm 4 m/s 749 mmHg 70%
    12:00 +27°C° 0 mm 4 m/s 749 mmHg 67%
    13:00 +27°C° 0 mm 4 m/s 749 mmHg 65%
    14:00 +27°C° 0 mm 4 m/s 749 mmHg 63%
    15:00 +28°C° 0 mm 3 m/s 750 mmHg 63%
    16:00 +27°C° 0.1 mm 3 m/s 750 mmHg 66%
    17:00 +26°C° 0.1 mm 3 m/s 750 mmHg 70%
    18:00 +26°C° 0.1 mm 3 m/s 750 mmHg 74%
    19:00 +24°C° 0 mm 2 m/s 750 mmHg 77%
    20:00 +23°C° 0 mm 2 m/s 750 mmHg 80%
    21:00 +21°C° 0 mm 1 m/s 750 mmHg 83%
    22:00 +20°C° 0 mm 1 m/s 750 mmHg 84%
    23:00 +20°C° 0 mm 1 m/s 751 mmHg 85%

    Amanhã, 20 Julho, Sábado

    Tempo Temperatura Precipitação Vento Pressão Humidade
    00:00 +18°C° 0 mm 2 m/s 751 mmHg 85%
    01:00 +18°C° 0 mm 2 m/s 751 mmHg 87%
    02:00 +18°C° 0 mm 1 m/s 751 mmHg 88%
    03:00 +18°C° 0 mm 1 m/s 751 mmHg 89%
    04:00 +19°C° 0 mm 1 m/s 751 mmHg 88%
    05:00 +20°C° 0 mm 1 m/s 751 mmHg 86%
    06:00 +19°C° 0 mm 2 m/s 752 mmHg 84%
    07:00 +21°C° 0 mm 2 m/s 752 mmHg 78%
    08:00 +22°C° 0 mm 3 m/s 752 mmHg 72%
    09:00 +24°C° 0 mm 3 m/s 752 mmHg 66%
    10:00 +25°C° 0 mm 3 m/s 752 mmHg 64%
    11:00 +26°C° 0 mm 4 m/s 752 mmHg 63%
    12:00 +26°C° 0 mm 4 m/s 752 mmHg 61%
    13:00 +26°C° 0.1 mm 4 m/s 752 mmHg 61%
    14:00 +26°C° 0.1 mm 4 m/s 752 mmHg 61%
    15:00 +26°C° 0.1 mm 4 m/s 752 mmHg 62%
    16:00 +26°C° 0.1 mm 4 m/s 752 mmHg 66%
    17:00 +25°C° 0.1 mm 3 m/s 752 mmHg 70%
    18:00 +24°C° 0.1 mm 3 m/s 752 mmHg 74%
    19:00 +22°C° 0 mm 3 m/s 752 mmHg 76%
    20:00 +20°C° 0 mm 3 m/s 753 mmHg 78%
    21:00 +18°C° 0 mm 2 m/s 753 mmHg 80%
    22:00 +18°C° 0 mm 3 m/s 753 mmHg 83%
    23:00 +17°C° 0 mm 3 m/s 753 mmHg 86%

    Depois de amanhã, 21 Julho, Domingo

    Tempo Temperatura Precipitação Vento Pressão Humidade
    00:00 +17°C° 0 mm 3 m/s 753 mmHg 89%
    01:00 +16°C° 0 mm 3 m/s 753 mmHg 90%
    02:00 +16°C° 0 mm 3 m/s 753 mmHg 91%
    03:00 +16°C° 0 mm 3 m/s 753 mmHg 92%
    04:00 +17°C° 0 mm 3 m/s 753 mmHg 89%
    05:00 +17°C° 0 mm 4 m/s 753 mmHg 86%
    06:00 +18°C° 0 mm 4 m/s 753 mmHg 83%
    07:00 +20°C° 0 mm 4 m/s 753 mmHg 79%
    08:00 +21°C° 0 mm 5 m/s 753 mmHg 75%
    09:00 +22°C° 0 mm 5 m/s 753 mmHg 70%
    10:00 +23°C° 0.2 mm 5 m/s 752 mmHg 69%
    11:00 +23°C° 0.2 mm 5 m/s 752 mmHg 68%
    12:00 +24°C° 0.2 mm 6 m/s 752 mmHg 66%
    13:00 +24°C° 0.1 mm 6 m/s 752 mmHg 65%
    14:00 +25°C° 0.1 mm 5 m/s 752 mmHg 63%
    15:00 +26°C° 0.1 mm 5 m/s 752 mmHg 62%
    16:00 +25°C° 0.1 mm 5 m/s 752 mmHg 67%
    17:00 +23°C° 0.1 mm 4 m/s 752 mmHg 72%
    18:00 +24°C° 0.1 mm 3 m/s 752 mmHg 78%
    19:00 +21°C° 0.1 mm 3 m/s 752 mmHg 82%
    20:00 +20°C° 0.1 mm 3 m/s 752 mmHg 86%
    21:00 +18°C° 0.1 mm 3 m/s 752 mmHg 90%
    22:00 +18°C° 0 mm 3 m/s 752 mmHg 92%
    23:00 +17°C° 0 mm 3 m/s 752 mmHg 93%

    22 Julho, Segunda-feira

    Tempo Temperatura Precipitação Vento Pressão Humidade
    00:00 +17°C° 0 mm 3 m/s 752 mmHg 95%
    01:00 +17°C° 0 mm 3 m/s 751 mmHg 95%
    02:00 +16°C° 0 mm 3 m/s 751 mmHg 95%
    03:00 +16°C° 0 mm 3 m/s 751 mmHg 96%
    04:00 +17°C° 0 mm 3 m/s 751 mmHg 94%
    05:00 +17°C° 0 mm 3 m/s 751 mmHg 92%
    06:00 +18°C° 0 mm 4 m/s 751 mmHg 90%
    07:00 +19°C° 0.1 mm 4 m/s 751 mmHg 86%
    08:00 +20°C° 0.1 mm 4 m/s 751 mmHg 81%
    09:00 +22°C° 0.1 mm 4 m/s 751 mmHg 76%
    10:00 +22°C° 0.8 mm 5 m/s 751 mmHg 75%
    11:00 +22°C° 0.8 mm 5 m/s 751 mmHg 74%
    12:00 +23°C° 0.8 mm 6 m/s 751 mmHg 73%
    13:00 +23°C° 0.3 mm 5 m/s 751 mmHg 71%
    14:00 +23°C° 0.3 mm 5 m/s 751 mmHg 70%
    15:00 +25°C° 0.3 mm 5 m/s 751 mmHg 68%
    16:00 +23°C° 0.1 mm 4 m/s 751 mmHg 71%
    17:00 +22°C° 0.1 mm 3 m/s 751 mmHg 74%
    18:00 +21°C° 0.1 mm 3 m/s 750 mmHg 77%
    19:00 +20°C° 0 mm 2 m/s 750 mmHg 81%
    20:00 +19°C° 0 mm 1 m/s 751 mmHg 85%
    21:00 +18°C° 0 mm 1 m/s 751 mmHg 88%
    22:00 +18°C° 0 mm 1 m/s 750 mmHg 89%
    23:00 +16°C° 0 mm 1 m/s 750 mmHg 90%

    23 Julho, Terça-feira

    Tempo Temperatura Precipitação Vento Pressão Humidade
    00:00 +16°C° 0 mm 1 m/s 750 mmHg 91%
    01:00 +16°C° 0 mm 2 m/s 750 mmHg 92%
    02:00 +16°C° 0 mm 2 m/s 750 mmHg 93%
    03:00 +15°C° 0 mm 2 m/s 750 mmHg 95%
    04:00 +16°C° 0 mm 2 m/s 750 mmHg 93%
    05:00 +17°C° 0 mm 3 m/s 751 mmHg 91%
    06:00 +17°C° 0 mm 3 m/s 751 mmHg 89%
    07:00 +19°C° 0 mm 3 m/s 751 mmHg 83%
    08:00 +20°C° 0 mm 3 m/s 751 mmHg 77%
    09:00 +22°C° 0 mm 3 m/s 751 mmHg 71%
    10:00 +24°C° 0 mm 3 m/s 751 mmHg 66%
    11:00 +24°C° 0 mm 3 m/s 751 mmHg 62%
    12:00 +25°C° 0 mm 3 m/s 751 mmHg 58%
    13:00 +25°C° 0.1 mm 4 m/s 751 mmHg 58%
    14:00 +25°C° 0.1 mm 4 m/s 751 mmHg 59%
    15:00 +25°C° 0.1 mm 4 m/s 750 mmHg 59%
    16:00 +25°C° 0 mm 3 m/s 750 mmHg 63%
    17:00 +24°C° 0 mm 3 m/s 750 mmHg 67%
    18:00 +24°C° 0 mm 2 m/s 750 mmHg 71%
    19:00 +21°C° 0 mm 2 m/s 750 mmHg 76%
    20:00 +20°C° 0 mm 1 m/s 750 mmHg 81%
    21:00 +19°C° 0 mm 1 m/s 750 mmHg 87%
    22:00 +18°C° 0 mm 1 m/s 750 mmHg 87%
    23:00 +18°C° 0 mm 1 m/s 750 mmHg 88%

    24 Julho, Quarta-feira

    Tempo Temperatura Precipitação Vento Pressão Humidade
    00:00 +16°C° 0 mm 0 m/s 750 mmHg 89%
    01:00 +16°C° 0 mm 1 m/s 750 mmHg 89%
    02:00 +16°C° 0 mm 1 m/s 751 mmHg 89%
    03:00 +16°C° 0 mm 1 m/s 751 mmHg 89%
    04:00 +18°C° 0 mm 1 m/s 751 mmHg 87%
    05:00 +19°C° 0 mm 1 m/s 751 mmHg 85%
    06:00 +18°C° 0 mm 2 m/s 751 mmHg 83%
    07:00 +20°C° 0 mm 2 m/s 751 mmHg 81%
    08:00 +21°C° 0 mm 3 m/s 751 mmHg 78%
    09:00 +22°C° 0 mm 3 m/s 751 mmHg 75%
    10:00 +24°C° 0 mm 3 m/s 751 mmHg 72%
    11:00 +25°C° 0 mm 3 m/s 751 mmHg 70%
    12:00 +26°C° 0 mm 3 m/s 751 mmHg 67%
    13:00 +27°C° 0 mm 3 m/s 751 mmHg 64%
    14:00 +28°C° 0 mm 3 m/s 750 mmHg 62%
    15:00 +29°C° 0 mm 3 m/s 750 mmHg 59%
    16:00 +28°C° 0 mm 4 m/s 750 mmHg 64%
    17:00 +27°C° 0 mm 4 m/s 750 mmHg 69%
    18:00 +26°C° 0 mm 4 m/s 750 mmHg 73%
    19:00 +25°C° 0 mm 5 m/s 750 mmHg 73%
    20:00 +25°C° 0 mm 5 m/s 750 mmHg 72%
    21:00 +23°C° 0 mm 6 m/s 750 mmHg 71%
    22:00 +23°C° 0 mm 6 m/s 750 mmHg 71%
    23:00 +22°C° 0 mm 5 m/s 750 mmHg 70%
    Mostrar mais